Temp
1 1 1 1 1 1 1 1 2 2 2 1 2 2 2 2 2 3 3 3 3 3 4 4 4 4 4 4 4 4 4 3 3 3 3 4 4 3
1 0 0 0 0 0 0 0 1 1 2 1 0 0 1 1 1 1 2 2 3 2 3 3 3 3 3 3 3 3 3 3 3 2 3 3 3 3
0 0 0 0 0 -0 -0 -0 -0 -0 -0 0 -0 -0 -0 -0 -0 0 0 1 1 2 2 2 2 2 2 2 2 2 2 2 2 2 2 2 3 3
-1 -1 -1 -1 -1 -1 -1 -1 -1 -1 -1 -0 -1 -1 -1 -1 -1 -1 -1 -1 -0 -0 0 0 1 1 2 1 1 2 2 1 2 1 1 1 2 2
-2 -2 -2 -2 -2 -2 -2 -2 -2 -2 -2 -2 -2 -2 -2 -2 -2 -2 -2 -2 -2 -1 -1 -0 -0 0 1 1 1 1 1 1 1 1 1 1 1 1
-3 -3 -3 -3 -3 -3 -3 -3 -3 -3 -3 -3 -3 -3 -3 -3 -3 -3 -2 -2 -3 -3 -2 -2 -1 -1 -1 -0 -0 0 1 1 1 1 1 1 1 1
-4 -4 -4 -4 -4 -4 -4 -4 -4 -3 -3 -3 -3 -3 -3 -3 -4 -4 -3 -3 -3 -3 -3 -3 -3 -2 -2 -1 -1 -1 -1 -0 0 0 0 1 1 0
-5 -5 -5 -5 -5 -5 -5 -5 -4 -4 -4 -4 -4 -4 -4 -4 -4 -4 -4 -4 -4 -4 -4 -4 -4 -4 -3 -3 -2 -2 -2 -1 -1 -0 -0 0 0 0
-6 -6 -6 -6 -6 -6 -5 -5 -5 -5 -6 -5 -5 -5 -5 -5 -5 -5 -4 -4 -4 -4 -4 -4 -4 -4 -4 -4 -3 -3 -3 -2 -2 -2 -1 -1 -1 -1
-7 -7 -7 -7 -7 -7 -7 -6 -6 -6 -7 -6 -6 -6 -6 -6 -6 -6 -5 -5 -5 -5 -5 -4 -4 -4 -5 -5 -4 -4 -3 -3 -3 -2 -2 -2 -2 -1
-7 -8 -8 -8 -8 -8 -8 -8 -7 -7 -8 -8 -7 -7 -7 -7 -7 -7 -6 -6 -5 -5 -5 -5 -5 -5 -5 -5 -5 -5 -4 -4 -3 -3 -3 -2 -2 -2
-8 -8 -8 -8 -8 -8 -9 -9 -8 -8 -8 -8 -8 -8 -8 -8 -8 -8 -7 -7 -7 -6 -6 -6 -5 -5 -5 -5 -5 -6 -5 -5 -5 -4 -4 -3 -3 -3
-8 -8 -8 -8 -8 -8 -8 -8 -8 -8 -9 -9 -8 -8 -8 -8 -9 -9 -8 -8 -7 -7 -7 -6 -6 -6 -6 -6 -5 -6 -6 -6 -6 -6 -5 -5 -4 -4
-9 -9 -9 -10 -9 -9 -9 -10 -10 -11 -10 -11 -11 -11 -11 -10 -10 -10 -10 -9 -9 -8 -8 -8 -7 -7 -7 -6 -6 -6 -6 -6 -6 -7 -6 -6 -6 -5
-10 -10 -10 -10 -10 -11 -11 -12 -12 -12 -12 -13 -12 -12 -12 -12 -12 -12 -11 -11 -10 -10 -9 -9 -9 -8 -8 -7 -7 -6 -7 -7 -7 -7 -7 -7 -7 -6
-12 -12 -12 -12 -12 -12 -13 -13 -14 -14 -14 -14 -13 -13 -13 -13 -13 -13 -13 -12 -12 -11 -11 -10 -10 -10 -9 -8 -8 -7 -7 -7 -8 -8 -8 -8 -7 -7
-13 -13 -13 -14 -14 -14 -14 -14 -14 -14 -14 -14 -14 -14 -14 -14 -14 -14 -14 -13 -13 -13 -12 -11 -11 -11 -10 -10 -9 -9 -9 -9 -9 -9 -9 -8 -8 -8
-14 -14 -14 -14 -14 -14 -14 -14 -14 -15 -15 -15 -15 -14 -14 -14 -14 -14 -14 -14 -14 -13 -13 -13 -13 -12 -13 -12 -11 -10 -10 -10 -11 -10 -10 -9 -9 -9
-14 -14 -14 -14 -14 -14 -14 -15 -15 -15 -15 -15 -15 -14 -14 -14 -14 -14 -14 -14 -14 -14 -14 -14 -14 -14 -15 -14 -13 -13 -13 -12 -12 -11 -10 -10 -10 -9
-15 -15 -15 -15 -14 -15 -15 -15 -15 -15 -15 -15 -15 -15 -15 -15 -15 -15 -15 -15 -15 -15 -15 -15 -15 -15 -15 -14 -14 -13 -13 -13 -12 -11 -11 -11 -10 -10
-15 -14 -14 -14 -15 -15 -15 -15 -15 -15 -15 -15 -15 -15 -15 -15 -15 -16 -15 -16 -16 -16 -15 -15 -15 -15 -15 -14 -14 -13 -13 -12 -12 -12 -12 -11 -11 -10
-15 -15 -15 -14 -14 -15 -15 -15 -15 -15 -15 -15 -15 -15 -15 -16 -16 -16 -16 -16 -16 -15 -15 -15 -14 -14 -14 -14 -13 -13 -13 -13 -13 -12 -12 -12 -11 -11
-15 -15 -15 -15 -15 -15 -15 -15 -15 -16 -16 -16 -16 -16 -16 -16 -16 -16 -16 -15 -15 -15 -15 -15 -14 -14 -14 -13 -14 -14 -13 -13 -13 -13 -12 -13 -12 -12
Height
3037 3036 3035 3034 3033 3032 3031 3031 3030 3030 3032 3029 3029 3029 3028 3028 3027 3027 3027 3027 3027 3027 3027 3027 3027 3026 3026 3026 3026 3026 3026 3027 3028 3028 3028 3029 3030 3030
3032 3031 3030 3029 3028 3026 3025 3025 3024 3024 3024 3025 3023 3021 3020 3019 3019 3018 3019 3018 3018 3017 3018 3017 3017 3017 3017 3017 3017 3017 3018 3018 3019 3020 3021 3021 3022 3023
3027 3026 3024 3023 3022 3021 3019 3018 3016 3015 3015 3017 3015 3015 3015 3013 3011 3011 3010 3009 3008 3007 3008 3008 3007 3007 3007 3007 3008 3009 3009 3009 3010 3011 3012 3013 3014 3015
3021 3020 3018 3017 3016 3014 3013 3012 3010 3008 3007 3009 3007 3006 3004 3003 3003 3003 3001 3001 3001 3000 2999 2997 2997 2997 2998 2998 2999 2999 3000 3001 3001 3001 3003 3004 3005 3007
3014 3013 3011 3009 3008 3007 3006 3005 3004 3003 3001 3000 3001 2998 2997 2995 2994 2994 2994 2993 2991 2991 2990 2990 2989 2989 2989 2989 2990 2990 2991 2991 2992 2992 2994 2995 2997 2999
3008 3007 3005 3003 3001 2999 2998 2997 2996 2995 2994 2992 2992 2991 2990 2989 2986 2985 2986 2984 2985 2983 2983 2982 2981 2980 2980 2979 2980 2981 2982 2982 2983 2984 2984 2986 2987 2989
3001 2999 2997 2995 2993 2991 2989 2989 2987 2986 2986 2985 2984 2982 2982 2980 2977 2977 2977 2976 2976 2974 2975 2974 2973 2972 2971 2970 2970 2971 2971 2973 2974 2974 2975 2976 2978 2980
2993 2991 2989 2987 2985 2983 2981 2979 2979 2976 2976 2974 2974 2974 2974 2971 2969 2966 2967 2967 2968 2967 2966 2967 2964 2964 2963 2963 2962 2962 2963 2963 2964 2965 2966 2966 2968 2970
2983 2981 2980 2978 2976 2974 2972 2971 2969 2968 2966 2964 2964 2965 2963 2963 2960 2958 2957 2956 2957 2958 2954 2956 2956 2955 2953 2954 2954 2954 2955 2955 2955 2956 2957 2958 2959 2960
2971 2970 2968 2968 2966 2964 2962 2961 2960 2959 2959 2955 2954 2955 2954 2953 2952 2950 2948 2947 2947 2948 2945 2942 2947 2946 2945 2944 2944 2946 2947 2947 2947 2948 2949 2950 2951 2952
2961 2959 2958 2957 2956 2954 2951 2951 2949 2950 2948 2945 2944 2943 2943 2942 2941 2939 2939 2936 2936 2936 2936 2933 2936 2936 2935 2935 2935 2937 2938 2939 2939 2939 2940 2941 2942 2943
2952 2951 2949 2946 2945 2943 2940 2938 2937 2938 2934 2934 2933 2932 2931 2930 2929 2927 2926 2924 2924 2922 2925 2923 2924 2925 2925 2926 2926 2926 2928 2929 2930 2930 2931 2931 2932 2934
2940 2939 2938 2935 2933 2930 2928 2926 2924 2922 2920 2918 2917 2917 2916 2915 2914 2913 2912 2911 2911 2910 2912 2909 2910 2911 2912 2912 2914 2915 2916 2917 2918 2920 2920 2921 2922 2922
2928 2925 2923 2919 2917 2916 2913 2911 2909 2905 2902 2901 2900 2900 2901 2901 2900 2898 2897 2896 2896 2897 2898 2895 2895 2897 2897 2898 2900 2903 2903 2904 2905 2906 2908 2909 2909 2910
2913 2911 2907 2904 2901 2898 2897 2894 2892 2889 2887 2885 2885 2885 2886 2885 2884 2883 2883 2881 2880 2881 2882 2882 2880 2881 2882 2883 2884 2888 2889 2891 2892 2893 2894 2896 2897 2897
2900 2896 2892 2890 2887 2883 2880 2880 2877 2875 2873 2871 2871 2871 2871 2870 2869 2869 2867 2867 2864 2865 2866 2866 2867 2866 2865 2866 2868 2871 2876 2875 2878 2879 2881 2882 2883 2884
2886 2884 2881 2879 2875 2872 2869 2866 2864 2863 2861 2860 2858 2857 2857 2857 2856 2855 2853 2851 2849 2848 2849 2851 2852 2850 2850 2850 2850 2854 2859 2860 2864 2865 2866 2868 2870 2871
2874 2872 2869 2867 2864 2861 2858 2856 2854 2852 2851 2849 2847 2846 2844 2844 2842 2841 2839 2837 2835 2835 2834 2835 2834 2834 2833 2834 2836 2839 2842 2845 2849 2850 2851 2853 2858 2859
2862 2861 2857 2856 2853 2850 2847 2845 2842 2841 2839 2837 2835 2833 2831 2830 2828 2826 2825 2822 2821 2820 2820 2820 2819 2820 2820 2819 2826 2826 2829 2832 2834 2837 2839 2841 2845 2848
2852 2849 2846 2843 2841 2837 2835 2832 2830 2828 2826 2824 2822 2821 2818 2816 2814 2812 2811 2810 2809 2808 2807 2808 2809 2809 2811 2813 2812 2816 2817 2820 2822 2825 2828 2829 2833 2836
2839 2837 2834 2831 2828 2825 2822 2819 2817 2815 2813 2811 2809 2807 2805 2803 2802 2801 2800 2800 2799 2798 2798 2798 2801 2801 2801 2802 2802 2805 2808 2809 2812 2814 2817 2819 2822 2824
2827 2823 2821 2819 2815 2812 2808 2805 2803 2802 2800 2798 2796 2794 2793 2792 2791 2791 2791 2790 2791 2789 2789 2789 2790 2791 2791 2792 2794 2796 2798 2799 2801 2805 2807 2810 2812 2813
2814 2810 2807 2805 2801 2798 2795 2792 2790 2788 2786 2785 2784 2783 2783 2782 2781 2781 2781 2782 2782 2780 2781 2780 2782 2782 2782 2784 2786 2787 2789 2792 2794 2797 2799 2801 2803 2804
Wind_Speed
17 18 19 21 21 23 24 24 25 25 22 25 26 27 28 29 31 33 34 35 35 34 34 32 32 32 31 31 32 32 31 29 30 28 27 27 28 28
20 20 21 22 22 22 24 26 27 29 29 24 26 27 29 29 29 30 32 34 35 36 35 35 34 33 33 32 32 32 31 31 31 31 29 28 28 29
22 23 24 24 24 25 25 25 26 28 29 26 28 28 29 31 31 31 31 32 32 34 34 34 35 34 34 34 33 32 32 32 32 32 31 29 28 28
23 24 25 26 26 27 27 27 27 28 29 27 28 28 29 30 29 29 29 30 30 31 31 32 33 34 33 33 33 33 33 32 32 33 33 32 30 30
24 24 25 26 26 26 27 27 27 28 29 28 25 28 28 30 30 30 29 27 27 28 29 29 30 31 31 32 32 32 32 32 31 33 33 34 33 32
25 25 26 27 27 27 27 27 27 27 28 29 27 27 28 29 30 30 28 28 26 27 27 28 29 29 29 30 31 29 29 31 30 31 33 33 34 34
27 27 27 27 27 29 30 30 31 31 31 32 30 30 28 30 32 30 29 28 26 27 24 25 27 28 28 30 31 31 30 27 28 30 31 33 34 34
31 31 32 33 33 34 35 35 35 36 34 34 33 31 29 32 34 35 32 29 29 29 29 26 27 25 26 27 28 28 26 26 27 28 28 28 29 31
34 34 35 35 36 36 36 35 34 33 31 31 32 29 28 26 30 31 33 34 32 30 34 30 28 27 27 26 25 25 25 25 25 24 25 25 24 24
35 36 36 36 36 37 37 36 35 34 33 34 34 32 33 33 35 36 36 36 34 31 32 37 28 29 28 29 28 25 25 25 25 25 25 24 24 22
35 35 36 36 35 37 38 39 38 36 37 39 40 39 38 38 37 39 38 39 39 37 35 37 32 31 32 31 31 29 28 27 27 27 27 27 26 27
33 33 34 35 36 38 41 43 43 41 44 47 48 48 47 46 45 45 44 43 42 44 41 40 38 37 35 34 34 33 32 32 32 31 31 32 32 32
40 40 40 42 44 46 48 49 49 50 50 49 48 47 46 46 45 45 45 46 46 47 46 46 45 41 37 37 36 36 37 35 35 35 36 36 36 36
44 45 46 48 50 51 53 52 52 52 53 52 50 49 48 46 46 46 47 47 47 48 47 49 51 49 46 45 43 38 38 40 41 40 40 40 39 39
49 50 52 54 53 54 52 51 49 48 49 49 48 47 44 43 44 43 43 44 46 47 47 47 49 50 49 49 48 44 41 40 43 44 43 43 42 41
46 47 48 47 46 46 46 43 40 39 40 42 42 41 41 41 43 42 44 43 45 46 45 45 45 46 49 50 48 48 44 44 43 44 44 44 44 43
40 40 39 38 37 37 36 35 33 32 33 34 35 36 38 39 40 41 41 42 44 45 46 46 43 45 47 48 52 50 44 43 42 44 45 45 43 41
38 38 37 37 37 36 35 33 31 31 32 33 35 37 38 39 41 42 43 44 45 44 43 41 42 42 43 47 49 48 45 41 39 42 44 43 40 38
37 37 39 39 39 39 38 37 36 36 36 37 38 39 40 40 41 43 43 43 41 40 39 36 36 36 36 40 36 37 37 36 39 41 39 39 38 36
38 40 41 41 41 41 40 40 40 38 38 39 39 39 41 40 38 37 34 34 36 33 30 29 31 32 31 30 33 33 34 34 35 35 39 39 36 34
38 39 39 40 41 41 41 41 41 41 41 40 39 38 36 36 33 30 30 30 28 29 29 29 25 26 30 33 33 31 30 31 33 34 32 34 33 33
39 40 40 41 42 42 43 44 42 40 40 38 36 35 33 29 29 30 28 27 27 28 31 28 26 28 28 30 27 27 28 28 26 27 29 29 29 28
40 41 42 42 41 40 40 40 39 38 35 33 31 28 28 29 27 25 25 25 26 25 28 27 25 28 27 27 26 24 22 22 24 24 24 25 25 24
Wind_Direction
302 300 299 297 297 295 293 290 286 280 273 277 276 275 272 272 271 272 273 275 274 272 270 271 272 271 271 271 271 271 270 266 264 261 259 259 260 256
300 300 299 297 297 295 295 295 293 291 287 283 282 280 278 274 272 271 270 268 270 271 272 271 271 270 269 268 267 267 267 266 263 260 257 256 256 257
294 294 294 294 295 295 294 293 293 293 291 289 290 286 283 282 281 279 276 273 271 270 270 269 268 268 269 268 267 265 263 262 261 261 258 254 253 252
290 290 291 291 292 293 293 293 292 290 290 288 288 287 287 285 281 278 276 277 276 274 272 270 270 271 270 269 267 265 262 260 259 257 257 254 249 248
288 288 288 289 289 289 290 291 293 294 295 295 290 289 289 288 285 284 281 278 274 272 271 272 271 269 269 268 266 264 262 261 258 256 255 254 252 250
287 287 288 289 290 289 289 289 288 288 288 290 290 288 290 291 292 289 286 284 281 278 276 273 271 271 269 268 268 266 264 263 261 258 256 254 252 250
283 283 283 283 285 287 287 286 287 287 286 286 286 285 286 286 287 288 287 284 282 280 283 285 280 276 269 268 269 268 267 263 259 259 257 254 253 251
282 281 281 281 281 281 284 286 286 285 284 284 284 285 284 282 282 282 284 285 281 282 282 284 284 282 278 272 268 268 266 262 258 256 257 256 254 253
285 285 285 285 285 283 282 282 283 282 281 279 280 284 284 287 285 287 286 282 280 280 281 277 282 282 278 274 269 266 265 265 262 258 254 254 253 252
286 286 285 286 286 285 283 282 280 277 277 276 276 277 281 285 287 287 285 285 285 284 283 279 274 274 273 272 271 269 266 263 263 261 259 256 254 251
288 286 285 284 283 282 281 280 278 279 279 280 281 282 284 285 288 286 285 283 282 281 279 282 283 276 269 268 268 269 268 266 264 264 262 262 260 261
287 288 289 289 288 286 285 284 283 283 281 281 282 283 285 285 285 284 283 281 279 278 277 279 279 277 274 268 268 268 269 269 267 265 264 264 265 266
289 289 289 289 288 287 286 285 285 283 282 279 278 278 280 281 281 278 275 274 274 274 275 277 276 276 277 276 270 268 267 268 267 267 266 266 266 267
291 291 292 291 289 286 283 281 281 280 279 279 279 279 279 278 277 275 275 273 271 271 272 272 272 273 275 273 273 272 269 268 269 269 269 270 271 272
296 295 292 291 292 290 287 285 283 280 279 278 277 277 277 276 274 275 275 276 275 272 271 271 273 273 271 270 271 271 271 269 267 267 268 269 270 272
298 296 295 295 294 292 289 286 283 281 280 279 279 279 278 278 279 280 279 277 275 272 270 272 270 270 272 271 270 268 268 271 270 263 263 265 268 270
294 295 296 297 298 297 296 292 288 285 280 279 277 276 275 276 278 281 281 280 279 277 275 271 270 270 267 268 269 271 269 268 265 261 258 258 261 264
292 296 297 297 298 297 296 295 292 289 286 283 283 283 282 281 280 280 280 281 281 279 278 276 272 267 263 261 263 266 266 265 256 252 254 255 256 259
290 293 294 296 296 294 293 291 289 288 286 285 284 284 283 282 283 282 281 282 280 279 279 275 271 265 266 265 264 263 261 256 252 251 251 253 255 258
286 289 291 292 293 293 292 290 287 286 287 287 285 284 284 283 282 282 281 280 280 279 277 275 270 265 261 271 267 258 256 256 254 253 250 249 254 257
289 290 291 291 290 291 290 289 288 285 285 287 286 284 282 282 281 278 278 277 277 276 274 276 268 270 260 261 265 258 254 256 254 253 252 250 253 256
291 290 290 291 291 289 288 290 289 288 288 287 286 283 282 279 277 279 277 270 276 270 271 280 267 270 270 256 263 256 253 253 252 253 248 252 256 257
295 294 294 293 291 290 289 289 289 288 287 285 283 281 278 278 277 273 272 265 282 275 269 272 267 271 265 257 254 250 247 248 246 248 254 257 258 257